Wellsville, NY

7:19 PM EST on November 18, 2019 (GMT -0500)
Wellsville Municipal-Tarantine

Weather History for KELZ - October, 2019

Change the Weather History Date:

Sunday, October 20, 2019

  Actual Average (WUND) Record (WUND)
Temperature  
Mean Temperature 53 °F -  
Max Temperature 63 °F - - (-1)
Min Temperature 43 °F - - (-1)
Degree Days  
Heating Degree Days 12    
Growing Degree Days 3 (Base 50)    
Moisture  
Dew Point 41 °F    
Average Humidity 67    
Maximum Humidity 86    
Minimum Humidity 45    
Precipitation  
Precipitation 0.00 in - - ()
Sea Level Pressure  
Sea Level Pressure 29.97 in    
Wind  
Wind Speed 4 mph ()    
Max Wind Speed 8 mph    
Max Gust Speed -    
Visibility 10.0 miles    
Events      
Averages and records for this station are not official NWS values.
T = Trace of Precipitation, MM = Missing Value Source: Averaged Metar Reports

Daily Weather History Graph

Daily Weather History Graph

Search for Another Location

Airport or City:

Astronomy

Oct. 20, 2019 Rise Set
Actual Time 7:30 AM EDT 6:22 PM EDT
Civil Twilight 7:01 AM EDT 6:51 PM EDT
Nautical Twilight 6:29 AM EDT 7:23 PM EDT
Astronomical Twilight 5:56 AM EDT 7:56 PM EDT
Moon 11:25 PM EDT (10/20) 2:00 PM EDT (10/20)
Length of Visible Light 11h 49m
Length of Day
10h 52m
Waning Gibbous, 59% of the Moon is Illuminated
Oct 20
Waning Gibbous
Oct 21
Last Quarter
Oct 27
New
Nov 4
First Quarter
Nov 12
Full

Hourly Weather History & Observations

Time (EDT) Temp. Windchill Dew Point Humidity Pressure Visibility Wind Dir Wind Speed Gust Speed Precip Events Conditions
12:56 AM 44.1 °F 40.8 °F 37.0 °F 76% 29.96 in 10.0 mi SSE 5.8 mph - N/A   Clear
1:56 AM 46.0 °F 43.9 °F 37.9 °F 73% 29.95 in 10.0 mi ESE 4.6 mph - N/A   Clear
2:56 AM 45.0 °F 41.8 °F 37.9 °F 76% 29.94 in 10.0 mi ESE 5.8 mph - N/A   Clear
3:56 AM 44.1 °F 40.8 °F 37.9 °F 79% 29.93 in 10.0 mi SE 5.8 mph - N/A   Clear
4:56 AM 45.0 °F 43.5 °F 37.9 °F 76% 29.93 in 10.0 mi Variable 3.5 mph - N/A   Clear
5:56 AM 45.0 °F - 37.9 °F 76% 29.93 in 10.0 mi Calm Calm - N/A   Clear
6:56 AM 43.0 °F 40.3 °F 39.0 °F 86% 29.94 in 10.0 mi SSE 4.6 mph - N/A   Overcast
7:56 AM 45.0 °F 41.8 °F 39.9 °F 82% 29.94 in 10.0 mi SSE 5.8 mph - N/A   Mostly Cloudy
8:56 AM 46.9 °F - 39.9 °F 77% 29.97 in 10.0 mi South 5.8 mph - N/A   Clear
9:56 AM 50.0 °F - 39.9 °F 68% 29.97 in 10.0 mi South 6.9 mph - N/A   Clear
10:56 AM 52.0 °F - 41.0 °F 66% 29.98 in 10.0 mi Calm Calm - N/A   Scattered Clouds
11:56 AM 55.0 °F - 41.0 °F 59% 29.96 in 10.0 mi Variable 3.5 mph - N/A   Partly Cloudy
12:56 PM 61.0 °F - 43.0 °F 52% 29.96 in 10.0 mi Variable 4.6 mph - N/A   Clear
1:56 PM 63.0 °F - 42.1 °F 46% 29.94 in 10.0 mi SSW 8.1 mph - N/A   Clear
2:56 PM 62.1 °F - 41.0 °F 46% 29.94 in 10.0 mi West 6.9 mph - N/A   Clear
3:56 PM 63.0 °F - 41.0 °F 45% 29.95 in 10.0 mi Variable 5.8 mph - N/A   Clear
4:56 PM 62.1 °F - 41.0 °F 46% 29.95 in 10.0 mi Calm Calm - N/A   Clear
5:56 PM 62.1 °F - 42.1 °F 48% 29.96 in 10.0 mi North 3.5 mph - N/A   Clear
6:56 PM 55.9 °F - 42.1 °F 60% 29.99 in 10.0 mi SSW 3.5 mph - N/A   Clear
7:56 PM 55.0 °F - 43.0 °F 64% 30.00 in 10.0 mi Calm Calm - N/A   Clear
8:56 PM 53.1 °F - 43.0 °F 69% 30.01 in 10.0 mi Calm Calm - N/A   Clear
9:56 PM 50.0 °F - 42.1 °F 74% 30.02 in 10.0 mi Calm Calm - N/A   Clear
10:56 PM 48.0 °F - 43.0 °F 83% 30.04 in 10.0 mi Calm Calm - N/A   Clear
11:56 PM 46.9 °F - 43.0 °F 86% 30.05 in 10.0 mi Calm Calm - N/A   Clear